Regional Weather Roundup
Issued by NWS

Home | Current Version | Previous Version | Graphics & Text | Print | Product List | Glossary On
Versions: 1 2 3 4 5 6 7 8 9 10 11 12 13 14 15 16 17 18 19 20 21 22 23 24 25 26 27 28 29 30 31 32 33 34 35 36 37 38 39 40 41 42 43 44 45 46 47 48 49 50
000
ASUS43 KDMX 221301
RWRIA

WEATHER ROUNDUP FOR IOWA
NATIONAL WEATHER SERVICE DES MOINES IA
800 AM CDT SAT APR 22 2017

NOTE: "FAIR" INDICATES FEW OR NO CLOUDS BELOW 12,000 FEET WITH NO
SIGNIFICANT WEATHER AND/OR OBSTRUCTIONS TO VISIBILITY.

* - THESE STATIONS ARE NOT NWS STATIONS...THUS NOT UNDER NWS
QUALITY CONTROL.  THEY ALSO DO NOT REPORT WEATHER SUCH
AS PRECIPITATION OR FOG.

IAZ001>003-012>014-020>022-031>034-043>046-221400-
   NORTHWEST IOWA

CITY           SKY/WX    TMP DP  RH WIND       PRES   REMARKS
CARROLL *      CLOUDY    46  39  76 N9        30.25R
CHEROKEE *     MOSUNNY   38  38  99 NE5       30.28R WCI  35
DENISON *      CLOUDY    43  37  81 NE7       30.27R
LE MARS *      CLOUDY    39  39 100 CALM      30.30R
ORANGE CITY *  CLOUDY    46  39  76 N6        30.28R
SHELDON *      CLOUDY    41  37  87 CALM      30.27R
SIOUX CITY     CLOUDY    42  40  92 W6        30.28R
SPENCER        CLOUDY    42  39  89 NW5       30.28R
STORM LAKE *   CLOUDY    43  37  81 N7        30.26R
$$

IAZ055>058-069>071-079>083-090>094-221400-
   SOUTHWEST IOWA

CITY           SKY/WX    TMP DP  RH WIND       PRES   REMARKS
ATLANTIC *     CLOUDY    43  39  87 CALM      30.23S
AUDUBON *      CLOUDY    46  39  76 N7        30.24S
CLARINDA *     CLOUDY    45  39  81 NE9       30.24R
COUNCIL BLFS * SUNNY     43  41  93 N8        30.24R
CRESTON *      MOSUNNY   46  37  71 N15       30.22R
HARLAN  *      MOSUNNY   43  41  93 N7        30.27R
LAMONI         PTSUNNY   46  39  76 N6        30.19R
RED OAK *      CLOUDY    45  39  81 N9        30.23R
SHENANDOAH *   CLOUDY    45  41  87 NE6       30.23R
$$

IAZ047>049-059>061-072>074-084-221400-
   CENTRAL IOWA

CITY           SKY/WX    TMP DP  RH WIND       PRES   REMARKS
AMES           CLOUDY    46  38  73 NE6       30.23R
ANKENY *       SUNNY     45  37  76 N9        30.23S
BOONE *        CLOUDY    45  37  76 NE9       30.23R
CHARITON *     CLOUDY    46  39  76 NE10      30.20R
DES MOINES     CLOUDY    49  35  58 NE10      30.22R
GRINNELL*      SUNNY     44  37  76 NE9       30.23R
KNOXVILLE *    CLOUDY    48  37  66 NE8G14    30.20R
MARSHALLTOWN   PTSUNNY   46  38  73 NE8       30.23R
NEWTON *       SUNNY     45  36  70 NE8       30.22R
PELLA *        CLOUDY    45  38  76 NE3       30.23R
PERRY *          N/A     44  38  78 N8        30.23R
$$

IAZ004>006-015-016-023>025-035-036-221400-
   NORTH CENTRAL IOWA

CITY           SKY/WX    TMP DP  RH WIND       PRES   REMARKS
ALGONA *       CLOUDY    45  39  81 N5        30.27R
ESTHERVILLE    CLOUDY    44  40  85 NW7       30.27R
FORT DODGE *   CLOUDY    43  36  75 N5        30.26R
MASON CITY     SUNNY     46  38  73 N3        30.27R
FOREST CITY *    N/A     43  41  93 CALM      30.26S
WEBSTER CITY * CLOUDY    43  39  87 N7        30.23R
IOWA FALLS *     N/A     47  34  62 NE5       30.25R
$$

IAZ007>011-017>019-026>030-037>042-050>054-066-221400-
   NORTHEAST IOWA

CITY           SKY/WX    TMP DP  RH WIND       PRES   REMARKS
CEDAR RAPIDS   CLOUDY    46  37  71 NE8       30.22R
CHARLES CITY * SUNNY     46  32  57 E8        30.26R
CLINTON *      CLOUDY    44  35  70 NE10      30.23R
DECORAH *      SUNNY     45  34  65 CALM      30.25R
DUBUQUE        CLOUDY    43  35  73 NE9       30.23S
MONTICELLO *   CLOUDY    45  34  65 NE5       30.23R
WATERLOO       SUNNY     45  37  73 E5        30.24R
$$

IAZ064-065-067-068-078-221400-
   EAST CENTRAL IOWA

CITY           SKY/WX    TMP DP  RH WIND       PRES   REMARKS
DAVENPORT      CLOUDY    43  34  70 NE9       30.22R
IOWA CITY      MOSUNNY   47  34  60 NE10      30.23R
MUSCATINE *    CLOUDY    45  34  65 NE12      30.22R
QUAD CITIES    MOSUNNY   46  32  58 NE10      30.21R
$$

IAZ062-063-075>077-085>089-095>099-221400-
   SOUTHEAST IOWA

CITY           SKY/WX    TMP DP  RH WIND       PRES   REMARKS
BURLINGTON     PTSUNNY   45  35  68 NE12      30.17R
FAIRFIELD *    CLOUDY    46  36  66 NE12      30.19R
FORT MADISON * MOSUNNY   48  37  66 NE7       30.19R
KEOKUK *       PTSUNNY   48  34  57 NE12G17   30.17R
OSKALOOSA *      N/A     46  38  76 NE8       30.21R
CENTERVILLE *    N/A     45  39  81 CALM      30.21R
OTTUMWA        CLOUDY    47  40  76 NE7       30.20R
WASHINGTON *   CLOUDY    45  37  76 NE10      30.22R
$$

ABBREVIATIONS USED IN REMARKS
   TC - TEMPERATURES IN CELSIUS
  WCI - WIND CHILL INDEX
   HX - HEAT INDEX
  VSB - VISIBILITY
$$





USA.gov is the U.S. government's official web portal to all federal, state and local government web resources and services.